Lincoln Lakeshore

*Note: All times are displayed in the local standard time of the station location.
**Rain - Equipment is designed to accurately record liquid precipitation; under conditions when precipitation is not in liquid form, the data displayed may not properly reflect rainfall values.

Date Max Temp
(°C)
Min Temp
(°C)
Avg Temp
(°C)
Rain (mm) Avg RH (%)
Fri, Feb 15, 2019 4.5 -3.8 0.9 7.4 60.3
Thu, Feb 14, 2019 1.9 -4.1 -1.1 1.4 60.0
Wed, Feb 13, 2019 1.7 -4.4 -2.2 0.4 60.0
Tue, Feb 12, 2019 1.8 -4.6 -2.0 12.8 83.1
Mon, Feb 11, 2019 -1.7 -4.1 -2.9 0.0 56.9
Sun, Feb 10, 2019 -2.8 -9.2 -5.4 0.0 53.0
Sat, Feb 09, 2019 -3.5 -9.4 -6.5 0.0 45.0
DateTime Avg Temp (°C) Rain (mm) RH (%)
Sat, Feb 16, 2019 16:00 -1.3 0.0 37.5
Sat, Feb 16, 2019 15:00 -1.9 0.0 39.4
Sat, Feb 16, 2019 14:00 -2.2 0.0 40.3
Sat, Feb 16, 2019 13:00 -2.6 0.0 42.4
Sat, Feb 16, 2019 12:00 -3.0 0.0 42.3
Sat, Feb 16, 2019 11:00 -3.3 0.0 44.7
Sat, Feb 16, 2019 10:00 -3.6 0.0 46.5
Sat, Feb 16, 2019 09:00 -3.6 0.0 43.1
Sat, Feb 16, 2019 08:00 -3.9 0.0 43.5
Sat, Feb 16, 2019 07:00 -3.5 0.0 49.0
Sat, Feb 16, 2019 06:00 -2.7 0.0 46.3
Sat, Feb 16, 2019 05:00 -2.9 0.0 56.5
Sat, Feb 16, 2019 04:00 -3.2 0.0 58.7
Sat, Feb 16, 2019 03:00 -3.4 0.0 58.3
Sat, Feb 16, 2019 02:00 -3.4 0.0 54.9
Sat, Feb 16, 2019 01:00 -3.5 0.0 52.9
Sat, Feb 16, 2019 00:00 -3.6 0.0 51.1
Fri, Feb 15, 2019 23:00 -3.8 0.0 49.2
Fri, Feb 15, 2019 22:00 -3.6 0.0 48.9
Fri, Feb 15, 2019 21:00 -3.1 0.0 46.0
Fri, Feb 15, 2019 20:00 -2.2 0.0 47.5
Fri, Feb 15, 2019 19:00 -1.7 0.0 46.1
Fri, Feb 15, 2019 18:00 -1.1 0.0 45.6
Fri, Feb 15, 2019 17:00 -0.4 0.0 47.0
Fri, Feb 15, 2019 16:00 -0.1 0.0 52.2
Fri, Feb 15, 2019 15:00 0.2 0.0 52.1
Fri, Feb 15, 2019 14:00 1.0 0.0 53.8
Fri, Feb 15, 2019 13:00 2.4 0.0 45.1
Fri, Feb 15, 2019 12:00 2.7 0.0 47.0
Fri, Feb 15, 2019 11:00 3.2 0.0 51.4
Fri, Feb 15, 2019 10:00 4.1 0.0 67.8
Fri, Feb 15, 2019 09:00 4.4 0.2 78.0
Fri, Feb 15, 2019 08:00 4.4 0.0 80.0
Fri, Feb 15, 2019 07:00 4.5 0.0 82.8
Fri, Feb 15, 2019 06:00 4.2 0.6 88.6
Fri, Feb 15, 2019 05:00 4.3 0.4 78.9
Fri, Feb 15, 2019 04:00 3.9 6.0 67.8
Fri, Feb 15, 2019 03:00 2.0 0.2 67.6
Fri, Feb 15, 2019 02:00 0.4 0.0 75.3
Fri, Feb 15, 2019 01:00 0.1 0.0 77.4
Fri, Feb 15, 2019 00:00 0.0 0.0 78.2
Thu, Feb 14, 2019 23:00 -0.2 0.0 79.2
Thu, Feb 14, 2019 22:00 -0.9 0.0 81.7
Thu, Feb 14, 2019 21:00 -1.4 0.0 82.9
Thu, Feb 14, 2019 20:00 -1.8 0.0 80.0
Thu, Feb 14, 2019 19:00 -0.8 0.0 72.0
Thu, Feb 14, 2019 18:00 0.4 0.0 61.6
Thu, Feb 14, 2019 17:00 1.0 0.0 53.7


asterix Register now to access more data! asterix